TimeCDT,TemperatureF,Dew PointF,Humidity,Sea Level PressureIn,VisibilityMPH,Wind Direction,Wind SpeedMPH,Gust SpeedMPH,PrecipitationIn,Events,Conditions,WindDirDegrees,DateUTC
12:53 AM,68.0,60.1,76,29.82,10.0,ENE,4.6,-,N/A,,Clear,70,2014-06-10 05:53:00
1:53 AM,68.0,60.1,76,29.81,10.0,ENE,4.6,-,N/A,,Scattered Clouds,70,2014-06-10 06:53:00
2:53 AM,66.9,59.0,76,29.81,10.0,East,5.8,-,N/A,,Overcast,100,2014-06-10 07:53:00
3:53 AM,66.9,61.0,81,29.81,10.0,East,10.4,-,N/A,,Overcast,80,2014-06-10 08:53:00
4:53 AM,64.9,62.1,90,29.81,7.0,East,6.9,-,0.01,Rain,Light Rain,80,2014-06-10 09:53:00
5:53 AM,63.0,61.0,93,29.80,4.0,NE,12.7,-,0.04,Rain,Rain,50,2014-06-10 10:53:00
6:53 AM,62.1,60.1,93,29.81,3.0,NE,12.7,-,0.03,Rain,Light Rain,40,2014-06-10 11:53:00
7:06 AM,62.1,60.1,93,29.82,2.5,NE,13.8,-,0.01,Rain,Light Rain,50,2014-06-10 12:06:00
7:23 AM,61.0,59.0,93,29.82,1.5,ENE,10.4,-,0.06,Rain,Rain,60,2014-06-10 12:23:00
7:53 AM,60.1,59.0,96,29.82,1.8,NE,10.4,-,0.25,Rain,Rain,50,2014-06-10 12:53:00
7:59 AM,60.1,59.0,96,29.82,3.0,NE,9.2,-,0.00,Rain,Light Rain,40,2014-06-10 12:59:00
8:13 AM,60.8,59.0,94,29.82,1.8,NNE,9.2,-,N/A,Rain,Rain,30,2014-06-10 13:13:00
8:23 AM,60.1,59.0,96,29.83,2.0,NNE,9.2,-,0.07,Rain,Light Rain,30,2014-06-10 13:23:00
8:44 AM,60.1,59.0,96,29.82,1.8,NE,13.8,-,0.13,Rain,Heavy Rain,40,2014-06-10 13:44:00
8:53 AM,60.8,59.0,94,29.82,1.5,NE,12.7,-,N/A,Rain,Rain,50,2014-06-10 13:53:00
9:04 AM,61.0,60.1,97,29.82,2.0,NE,12.7,-,0.02,Rain,Rain,40,2014-06-10 14:04:00
9:27 AM,60.8,60.8,100,29.82,4.0,NE,11.5,-,N/A,Rain,Light Rain,50,2014-06-10 14:27:00
9:53 AM,62.6,60.8,94,29.82,3.0,NE,12.7,-,N/A,Rain,Light Rain,50,2014-06-10 14:53:00
10:02 AM,62.1,61.0,96,29.82,2.5,NE,11.5,-,0.02,Rain,Rain,50,2014-06-10 15:02:00
10:12 AM,63.0,62.1,97,29.82,4.0,NE,10.4,-,0.03,Rain,Light Rain,50,2014-06-10 15:12:00
10:42 AM,64.0,62.1,93,29.82,8.0,ENE,11.5,-,0.04,Rain,Light Rain,70,2014-06-10 15:42:00
10:53 AM,64.0,62.1,93,29.82,3.0,ENE,12.7,-,0.06,Rain,Light Rain,60,2014-06-10 15:53:00
11:00 AM,64.0,62.1,93,29.82,1.8,ENE,17.3,24.2,0.04,Rain,Heavy Rain,60,2014-06-10 16:00:00
11:13 AM,64.0,62.1,93,29.82,1.5,ENE,13.8,23.0,0.15,Rain,Rain,70,2014-06-10 16:13:00
11:19 AM,64.0,62.1,93,29.82,2.5,ENE,11.5,-,0.16,Rain,Rain,60,2014-06-10 16:19:00
11:25 AM,64.0,62.1,93,29.82,4.0,East,10.4,23.0,0.17,Rain,Light Rain,80,2014-06-10 16:25:00
11:50 AM,64.4,62.6,94,29.82,4.0,ENE,11.5,-,N/A,Rain,Light Rain,70,2014-06-10 16:50:00
11:53 AM,64.0,62.1,93,29.81,4.0,ENE,12.7,-,0.19,Rain,Light Rain,70,2014-06-10 16:53:00
12:04 PM,64.0,62.1,93,29.81,6.0,ENE,11.5,-,0.00,Rain,Light Rain,70,2014-06-10 17:04:00
12:12 PM,64.0,62.1,93,29.81,5.0,ENE,11.5,-,0.00,Rain,Light Rain,60,2014-06-10 17:12:00
12:53 PM,64.0,64.0,100,29.80,3.0,NE,13.8,24.2,0.04,Rain,Light Rain,50,2014-06-10 17:53:00
1:01 PM,64.0,64.0,100,29.81,2.5,ENE,12.7,20.7,0.02,Rain,Rain,60,2014-06-10 18:01:00
1:11 PM,64.0,64.0,100,29.80,3.0,ENE,11.5,-,0.04,Rain,Rain,70,2014-06-10 18:11:00
1:15 PM,64.0,64.0,100,29.80,2.0,ENE,10.4,-,0.06,Rain,Rain,60,2014-06-10 18:15:00
1:32 PM,64.0,64.0,100,29.80,4.0,NE,15.0,-,0.08,Rain,Light Rain,50,2014-06-10 18:32:00
1:53 PM,64.4,64.4,100,29.80,3.0,NE,9.2,-,N/A,,Overcast,50,2014-06-10 18:53:00
2:53 PM,64.9,64.9,100,29.78,5.0,NE,11.5,-,0.00,,Overcast,50,2014-06-10 19:53:00
3:40 PM,64.0,64.0,100,29.77,6.0,ENE,15.0,-,0.00,,Overcast,60,2014-06-10 20:40:00
3:53 PM,64.4,62.6,94,29.78,6.0,NE,11.5,-,N/A,,Overcast,40,2014-06-10 20:53:00
4:53 PM,64.0,63.0,96,29.77,3.0,NE,12.7,-,N/A,,Overcast,50,2014-06-10 21:53:00
5:53 PM,64.4,62.6,94,29.77,7.0,NE,12.7,-,N/A,,Overcast,50,2014-06-10 22:53:00
6:33 PM,64.0,62.1,93,29.77,2.0,NE,11.5,-,0.00,Rain,Light Rain,50,2014-06-10 23:33:00
6:53 PM,64.0,62.1,93,29.76,1.8,NE,12.7,-,0.01,Rain,Light Rain,40,2014-06-10 23:53:00
7:03 PM,64.0,62.1,93,29.77,2.5,NE,12.7,20.7,0.00,Rain,Light Rain,50,2014-06-11 00:03:00
7:12 PM,64.0,62.1,93,29.77,5.0,NE,11.5,-,0.00,Rain,Light Rain,40,2014-06-11 00:12:00
7:53 PM,64.0,61.0,90,29.76,9.0,NE,12.7,-,0.00,,Overcast,50,2014-06-11 00:53:00
8:45 PM,63.0,61.0,93,29.76,10.0,NE,11.5,-,N/A,,Overcast,40,2014-06-11 01:45:00
8:53 PM,63.0,61.0,93,29.76,10.0,NE,12.7,24.2,N/A,,Overcast,40,2014-06-11 01:53:00
9:53 PM,62.6,60.8,94,29.78,10.0,NE,13.8,-,N/A,,Overcast,40,2014-06-11 02:53:00
10:53 PM,63.0,61.0,93,29.77,7.0,NE,15.0,-,N/A,,Overcast,40,2014-06-11 03:53:00
11:53 PM,63.0,60.1,90,29.76,7.0,NE,15.0,-,N/A,,Overcast,40,2014-06-11 04:53:00